Regional Weather Roundup
Issued by NWS

Home | Current Version | Previous Version | Text Only | Print | Product List | Glossary On
Versions: 1 2 3 4 5 6 7 8 9 10 11 12 13 14 15 16 17 18 19 20 21 22 23 24 25 26 27 28 29 30 31 32 33 34 35 36 37 38 39 40 41 42 43 44 45 46 47 48 49 50
000
ASUS43 KTOP 162159
RWRKS

WEATHER ROUNDUP FOR KANSAS
NATIONAL WEATHER SERVICE GOODLAND KS
500 PM CDT MON OCT 16 2017

NOTE:  "FAIR" INDICATES FEW OR NO CLOUDS BELOW 12,000 FEET WITH NO
SIGNIFICANT WEATHER AND/OR OBSTRUCTIONS TO VISIBILITY.

KSZ001>006-013>018-027>032-041>047-162300-
NORTHWEST KANSAS

CITY           SKY/WX    TMP DP  RH WIND       PRES   REMARKS
GOODLAND       CLOUDY    78  29  16 S17G29    30.11F
HAYS           SUNNY     74  36  25 S22       30.16F
HILL CITY      SUNNY     77  32  19 S15G28    30.13F
RUSSELL        SUNNY     73  34  23 S21       30.16F
$$

KSZ061>065-074>080-084>089-162300-
SOUTHWEST KANSAS

CITY           SKY/WX    TMP DP  RH WIND       PRES   REMARKS
DODGE CITY     SUNNY     73  28  18 S21G30    30.20F
ELKHART          N/A     74  38  27 S13         N/A
GARDEN CITY    SUNNY     74  32  21 S18G29    30.18F
GREAT BEND     SUNNY     71  36  27 S20G28    30.20F
LIBERAL        SUNNY     73  36  25 S20       30.21F
$$

KSZ066>073-081>083-090>101-162300-
SOUTHEAST KANSAS

CITY           SKY/WX    TMP DP  RH WIND       PRES   REMARKS
CHANUTE        SUNNY     67  39  35 S12       30.29F
COFFEYVILLE    SUNNY     68  38  33 S5        30.30F
HUTCHINSON     SUNNY     71  38  29 S16       30.23F
MEDICINE LODGE   N/A     72  34  24 S12       30.24F
NEWTON         SUNNY     67  40  37 S14       30.26F
PARSONS        SUNNY     67  37  33 S7        30.31F
WICHITA INTL   MOSUNNY   68  38  33 S12       30.26F
WICHITA JABRA  SUNNY     67  39  35 S10       30.26F
WICHITA MCCONL SUNNY     68  36  31 SW13      30.27F
WINFIELD       SUNNY     67  39  35 S8        30.29F
$$

KSZ007>012-019>026-033>040-048>060-102>105-162300-
NORTHEAST KANSAS

CITY           SKY/WX    TMP DP  RH WIND       PRES   REMARKS
CONCORDIA      SUNNY     72  37  28 S18       30.18F
EMPORIA        SUNNY     69  37  30 S12       30.26F
LAWRENCE       SUNNY     69  40  34 S13       30.25F
MANHATTAN      SUNNY     72  40  31 S15       30.21F
OLATHE IND     SUNNY     67  40  37 S12       30.27F
OLATHE EXE     SUNNY     66  40  38 SW9       30.27F
SALINA         SUNNY     73  40  30 S17       30.21F
TOPEKA BILLARD SUNNY     71  37  28 S10       30.23F
TOPEKA FORBES  SUNNY     72  38  29 S14       30.24F
$$




USA.gov is the U.S. government's official web portal to all federal, state and local government web resources and services.